Stations météo

réclame
Mon MeteoGroup
Threave, Grande-Bretagne (99090): Température de l'air & dewpoint: 11.08.2019 14:00:00 - 17.08.2019 14:00:00 (BST)Threave, Grande-Bretagne (99090): Température de l'air -20cm & Température de l'air -100cm: 11.08.2019 14:00:00 - 17.08.2019 14:00:00 (BST)Threave, Grande-Bretagne (99090): Quantités de précipitations: 11.08.2019 14:00:00 - 17.08.2019 14:00:00 (BST)
Date & Time tt [°C] td [°C] tt -20cm [°C] tt -100cm [°C] rr [mm]
17.08.2019 14:00:00 16,9 11,5 - - 0,0
17.08.2019 13:00:00 16,4 11,2 - - 0,0
17.08.2019 12:00:00 15,6 10,6 - - 0,0
17.08.2019 11:00:00 15,3 10,3 - - 0,0
17.08.2019 10:00:00 15,0 10,6 16,5 15,4 0,0
17.08.2019 09:00:00 14,0 11,1 - - 0,0
17.08.2019 08:00:00 12,7 11,1 - - 0,0
17.08.2019 07:00:00 12,8 12,1 - - 0,0
17.08.2019 06:00:00 12,6 11,7 - - 0,2
17.08.2019 05:00:00 13,6 12,8 - - 1,8
17.08.2019 04:00:00 14,5 12,8 - - 0,0
17.08.2019 03:00:00 14,5 12,7 - - 0,0
17.08.2019 02:00:00 14,4 12,5 - - 0,0
17.08.2019 01:00:00 14,9 12,2 - - 0,0
17.08.2019 00:00:00 14,3 12,5 - - 0,0
16.08.2019 23:00:00 14,1 12,7 - - 0,0
16.08.2019 22:00:00 15,4 14,3 - - 0,0
16.08.2019 21:00:00 16,4 15,6 - - 0,0
16.08.2019 20:00:00 16,5 15,6 - - 0,0
16.08.2019 19:00:00 16,5 15,5 - - 0,0
16.08.2019 18:00:00 17,5 16,0 - - 0,0
16.08.2019 17:00:00 17,5 15,8 - - 0,0
16.08.2019 16:00:00 18,7 16,6 - - 0,0
16.08.2019 15:00:00 17,2 15,7 - - 0,0
16.08.2019 14:00:00 16,6 15,2 - - 0,0
16.08.2019 13:00:00 16,0 15,3 - - 0,4
16.08.2019 12:00:00 15,2 14,6 - - 4,0
16.08.2019 11:00:00 14,8 14,2 - - 7,4
16.08.2019 10:00:00 14,4 13,7 17,0 15,0 7,0
16.08.2019 09:00:00 14,2 13,2 - - 3,4
16.08.2019 08:00:00 14,7 13,7 - - 2,6
16.08.2019 07:00:00 14,9 14,0 - - 3,2
16.08.2019 06:00:00 14,9 13,9 - - 1,2
16.08.2019 05:00:00 15,2 13,3 - - 0,0
16.08.2019 04:00:00 15,1 13,4 - - 0,0
16.08.2019 03:00:00 15,6 14,5 - - 0,0
16.08.2019 02:00:00 15,4 14,2 - - 0,0
16.08.2019 01:00:00 15,3 13,9 - - 0,0
16.08.2019 00:00:00 15,4 13,4 - - 0,0
15.08.2019 23:00:00 14,9 11,9 - - 0,0
15.08.2019 22:00:00 15,0 12,6 - - 0,0
15.08.2019 21:00:00 14,1 10,5 - - 0,0
15.08.2019 20:00:00 15,0 10,0 - - 0,0
15.08.2019 19:00:00 17,2 9,6 - - 0,0
15.08.2019 18:00:00 18,3 9,6 - - 0,0
15.08.2019 17:00:00 18,2 9,1 - - 0,0
15.08.2019 16:00:00 17,0 8,2 - - 0,0
15.08.2019 15:00:00 17,8 8,6 - - 0,0
15.08.2019 14:00:00 17,9 8,6 - - 0,0
15.08.2019 13:00:00 17,1 8,5 - - 0,0
15.08.2019 12:00:00 16,2 9,6 - - 0,0
15.08.2019 11:00:00 14,8 10,6 - - 0,0
15.08.2019 10:00:00 14,7 10,7 16,5 15,0 0,0
15.08.2019 09:00:00 13,5 10,4 - - 0,0
15.08.2019 08:00:00 13,5 11,7 - - 0,0
15.08.2019 07:00:00 13,3 12,0 - - 0,2
15.08.2019 06:00:00 13,6 12,9 - - 0,0
15.08.2019 05:00:00 13,9 13,0 - - 0,0
15.08.2019 04:00:00 14,3 13,7 - - 0,6
15.08.2019 03:00:00 14,4 13,7 - - 0,0
15.08.2019 02:00:00 14,4 13,9 - - 0,0
15.08.2019 01:00:00 13,9 13,5 - - 0,0
15.08.2019 00:00:00 13,8 13,2 - - 0,0
14.08.2019 23:00:00 14,7 14,0 - - 0,0
14.08.2019 22:00:00 15,3 14,8 - - 0,0
14.08.2019 21:00:00 15,3 14,7 - - 0,0
14.08.2019 20:00:00 15,3 14,7 - - 0,2
14.08.2019 19:00:00 15,2 14,6 - - 1,0
14.08.2019 18:00:00 15,2 14,2 - - 0,0
14.08.2019 17:00:00 15,3 13,9 - - 0,0
14.08.2019 16:00:00 15,9 14,4 - - 0,0
14.08.2019 15:00:00 15,5 14,4 - - 0,0
14.08.2019 14:00:00 15,2 14,5 - - 0,2
14.08.2019 13:00:00 13,9 13,3 - - 0,2
14.08.2019 12:00:00 13,5 13,0 - - 0,8
14.08.2019 11:00:00 12,9 12,4 - - 0,0
14.08.2019 10:00:00 12,0 11,3 16,5 15,0 0,8
14.08.2019 09:00:00 12,1 11,6 - - 1,4
14.08.2019 08:00:00 12,3 11,8 - - 1,2
14.08.2019 07:00:00 12,5 12,0 - - 1,0
14.08.2019 06:00:00 12,5 12,2 - - 1,6
14.08.2019 05:00:00 11,5 11,2 - - 0,6
14.08.2019 04:00:00 11,1 10,7 - - 0,2
14.08.2019 03:00:00 11,0 10,4 - - 0,0
14.08.2019 02:00:00 11,6 11,0 - - 0,0
14.08.2019 01:00:00 11,6 11,1 - - 0,0
14.08.2019 00:00:00 11,5 10,8 - - 0,0
13.08.2019 23:00:00 11,5 10,7 - - 0,0
13.08.2019 22:00:00 10,9 9,0 - - 0,0
13.08.2019 21:00:00 12,9 10,3 - - 0,0
13.08.2019 20:00:00 13,6 9,7 - - 0,0
13.08.2019 19:00:00 15,6 11,1 - - 0,0
13.08.2019 18:00:00 15,9 10,3 - - 0,2
13.08.2019 17:00:00 14,8 8,6 - - 0,0
13.08.2019 16:00:00 17,0 9,0 - - 0,0
13.08.2019 15:00:00 16,7 8,0 - - 0,0
13.08.2019 14:00:00 16,2 8,1 - - 0,0
13.08.2019 13:00:00 15,4 8,8 - - 0,0
13.08.2019 12:00:00 16,2 11,0 - - 0,0
13.08.2019 11:00:00 15,8 10,0 - - 0,2
13.08.2019 10:00:00 14,2 10,4 16,2 15,0 0,0
13.08.2019 09:00:00 12,4 11,9 - - 0,0
13.08.2019 08:00:00 9,3 9,1 - - 0,0
13.08.2019 07:00:00 8,2 7,9 - - 0,0
13.08.2019 06:00:00 8,4 8,1 - - 0,0
13.08.2019 05:00:00 8,0 7,7 - - 0,0
13.08.2019 04:00:00 7,9 7,5 - - 0,0
13.08.2019 03:00:00 7,9 7,3 - - 0,0
13.08.2019 02:00:00 8,7 8,0 - - 0,0
13.08.2019 01:00:00 9,8 9,0 - - 0,0
13.08.2019 00:00:00 10,4 9,2 - - 0,0
12.08.2019 23:00:00 11,3 10,3 - - 0,0
12.08.2019 22:00:00 10,9 9,9 - - 0,0
12.08.2019 21:00:00 11,8 10,1 - - 0,0
12.08.2019 20:00:00 12,4 9,5 - - 0,0
12.08.2019 19:00:00 13,3 10,1 - - 0,0
12.08.2019 18:00:00 14,4 9,9 - - 0,0
12.08.2019 17:00:00 16,2 10,0 - - 0,0
12.08.2019 16:00:00 16,8 9,1 - - 0,0
12.08.2019 15:00:00 14,8 9,0 - - 0,0
12.08.2019 14:00:00 - - - - 0,0
12.08.2019 13:00:00 15,3 9,5 - - 0,0
12.08.2019 12:00:00 15,7 8,9 - - 0,0
12.08.2019 11:00:00 15,1 8,9 - - 0,0
12.08.2019 10:00:00 13,8 8,9 16,4 14,4 0,0
12.08.2019 09:00:00 11,7 9,7 - - 0,0
12.08.2019 08:00:00 8,8 8,3 - - 0,0
12.08.2019 07:00:00 7,7 7,3 - - 0,0
12.08.2019 06:00:00 8,3 7,5 - - 0,0
12.08.2019 05:00:00 8,8 7,8 - - 0,0
12.08.2019 04:00:00 9,2 7,9 - - 0,0
12.08.2019 03:00:00 9,5 8,3 - - 0,0
12.08.2019 02:00:00 10,1 9,0 - - 0,0
12.08.2019 01:00:00 10,2 8,9 - - 0,0
12.08.2019 00:00:00 10,3 9,3 - - 0,0
11.08.2019 23:00:00 10,3 9,3 - - 1,2
11.08.2019 22:00:00 10,8 9,5 - - 0,6
11.08.2019 21:00:00 11,4 9,8 - - 0,2
11.08.2019 20:00:00 12,0 9,6 - - 0,0
11.08.2019 19:00:00 12,3 10,0 - - 0,0
11.08.2019 18:00:00 12,9 10,6 - - 0,0
11.08.2019 17:00:00 13,5 11,2 - - 0,2
11.08.2019 16:00:00 13,8 12,0 - - 0,0
11.08.2019 15:00:00 14,2 13,0 - - 0,4
11.08.2019 14:00:00 14,4 13,5 - - 0,4

tt = Température de l'air
td = dewpoint
tt -20cm = Température de l'air -20cm
tt -100cm = Température de l'air -100cm
rr = Quantités de précipitations

stations d'obs. à proximité